Evenes, Norway

8:38 AM CEST on August 21, 2017 (GMT +0200)
Evenes

Weather History for ENEV - January, 2012

Change the Weather History Date:

Sunday, January 1, 2012

  Actual Average Record
Temperature  
Mean Temperature 29 °F -  
Max Temperature 35 °F 27 °F 46 °F (2016)
Min Temperature 23 °F 18 °F -2 °F (2003)
Degree Days  
Heating Degree Days 36    
Moisture  
Dew Point 16 °F    
Average Humidity 53    
Maximum Humidity 69    
Minimum Humidity 41    
Precipitation  
Precipitation 0.00 in - - ()
Sea Level Pressure  
Sea Level Pressure 29.42 in    
Wind  
Wind Speed 14 mph ()    
Max Wind Speed 34 mph    
Max Gust Speed 26 mph    
Visibility 6.2 miles    
Events Rain , Snow    
Averages and records for this station are not official NWS values.
T = Trace of Precipitation, MM = Missing Value Source: Averaged Metar Reports

Daily Weather History Graph

Daily Weather History Graph

Search for Another Location

Airport or City:

Trip Planner

Search our weather history database for the weather conditions in past years. The results will help you decide how hot, cold, wet, or windy it might be!

Date:

Astronomy

Jan. 01, 2012 Rise Set
Actual Time 11:24 AM CET 12:29 PM CET
Civil Twilight 9:18 AM CET 2:35 PM CET
Nautical Twilight 7:47 AM CET 4:06 PM CET
Astronomical Twilight 6:34 AM CET 5:19 PM CET
Moon 10:14 AM CET (1/1) 12:45 AM CET (1/1)
Length of Visible Light 5h 17m
Length of Day
1h 04m
First Quarter, 52% of the Moon is Illuminated
Jan 1
First Quarter
Jan 9
Full
Jan 16
Last Quarter
Jan 23
New
Jan 31
First Quarter

Hourly Weather History & Observations

Time (CET) Temp. Windchill Dew Point Humidity Pressure Visibility Wind Dir Wind Speed Gust Speed Precip Events Conditions
12:20 AM 23.0 °F 13.9 °F 14.0 °F 68% 29.56 in 6.2 mi SSE 8.1 mph - N/A   Unknown
12:50 AM 24.8 °F 16.9 °F 15.8 °F 69% 29.56 in 6.2 mi SSE 6.9 mph - N/A   Unknown
1:20 AM 24.8 °F 14.6 °F 15.8 °F 69% 29.53 in 6.2 mi SSE 10.4 mph - N/A   Unknown
1:50 AM 26.6 °F 14.7 °F 14.0 °F 59% 29.53 in 6.2 mi SE 15.0 mph - N/A   Unknown
2:20 AM 28.4 °F 18.0 °F 15.8 °F 59% 29.50 in 6.2 mi SE 12.7 mph 24.2 mph N/A   Unknown
2:50 AM 28.4 °F 17.5 °F 15.8 °F 59% 29.50 in 6.2 mi SE 13.8 mph - N/A   Unknown
3:20 AM 30.2 °F 21.9 °F 15.8 °F 55% 29.50 in 6.2 mi SSE 9.2 mph - N/A   Unknown
3:50 AM 30.2 °F 18.5 °F 15.8 °F 55% 29.47 in 6.2 mi SE 17.3 mph - N/A   Unknown
4:20 AM 30.2 °F 18.9 °F 15.8 °F 55% 29.44 in 6.2 mi ESE 16.1 mph - N/A   Unknown
4:50 AM 30.2 °F 19.3 °F 15.8 °F 55% 29.44 in 6.2 mi ESE 15.0 mph 26.5 mph N/A   Unknown
5:20 AM 30.2 °F 18.9 °F 15.8 °F 55% 29.42 in 6.2 mi SE 16.1 mph - N/A   Unknown
5:50 AM 30.2 °F 18.9 °F 15.8 °F 55% 29.42 in 6.2 mi SE 16.1 mph - N/A   Unknown
6:20 AM 32.0 °F 24.8 °F 15.8 °F 51% 29.42 in 6.2 mi SSE 8.1 mph - N/A   Partly Cloudy
6:50 AM 32.0 °F 26.4 °F 14.0 °F 48% 29.39 in 6.2 mi SSE 5.8 mph - N/A   Partly Cloudy
7:20 AM 32.0 °F 20.1 °F 15.8 °F 51% 29.39 in - South 19.6 mph - N/A   Clear
7:50 AM 32.0 °F 19.5 °F 15.8 °F 51% 29.39 in - South 21.9 mph - N/A   Clear
8:50 AM 32.0 °F 19.5 °F 12.2 °F 44% 29.39 in - South 21.9 mph - N/A   Clear
9:50 AM 32.0 °F 18.9 °F 14.0 °F 48% 29.39 in - South 24.2 mph - N/A   Clear
10:50 AM 32.0 °F 18.1 °F 12.2 °F 44% 29.39 in - South 27.6 mph - N/A   Clear
11:50 AM 33.8 °F 20.8 °F 12.2 °F 41% 29.39 in - South 26.5 mph - N/A   Clear
12:50 PM 33.8 °F 22.8 °F 12.2 °F 41% 29.36 in - South 18.4 mph - N/A   Clear
1:50 PM 33.8 °F 22.5 °F 12.2 °F 41% 29.36 in - South 19.6 mph - N/A   Clear
2:50 PM 33.8 °F 22.2 °F 15.8 °F 48% 29.36 in - South 20.7 mph - N/A   Clear
3:50 PM 33.8 °F 21.3 °F 17.6 °F 52% 29.36 in 6.2 mi South 24.2 mph - N/A   Mostly Cloudy
4:50 PM 35.6 °F 25.2 °F 19.4 °F 52% 29.36 in 6.2 mi SE 18.4 mph - N/A   Overcast
5:50 PM 35.6 °F 25.2 °F 19.4 °F 52% 29.33 in 6.2 mi SSE 18.4 mph - N/A   Overcast
6:50 PM 33.8 °F 19.9 °F 19.4 °F 56% 29.36 in 6.2 mi South 31.1 mph - N/A Rain , Snow Light Snow
7:50 PM 33.8 °F 19.2 °F 19.4 °F 56% 29.36 in 6.2 mi SSE 34.5 mph - N/A Rain , Snow Light Snow Showers
8:50 PM 33.8 °F 19.9 °F 19.4 °F 56% 29.36 in 6.2 mi South 31.1 mph - N/A Rain , Snow Light Rain Showers
10:50 PM 33.8 °F 20.5 °F 17.6 °F 52% 29.39 in 6.2 mi South 27.6 mph - N/A   Overcast
11:20 PM 33.8 °F 21.6 °F 17.6 °F 52% 29.39 in 6.2 mi SSE 23.0 mph - N/A   Mostly Cloudy
11:50 PM 33.8 °F 21.6 °F 17.6 °F 52% 29.39 in 6.2 mi SSE 23.0 mph - N/A   Overcast